Soldotna, AK

2:33 PM AKST on February 24, 2017 (GMT -0900)
Soldotna

Weather History for PASX - January, 2013

Change the Weather History Date:

Wednesday, January 2, 2013

  Actual Average Record
Temperature  
Mean Temperature 30 °F -  
Max Temperature 37 °F 18 °F 42 °F (1981)
Min Temperature 23 °F 0 °F -39 °F (1975)
Degree Days  
Heating Degree Days 35    
Moisture  
Dew Point 25 °F    
Average Humidity 84    
Maximum Humidity 100    
Minimum Humidity 70    
Precipitation  
Precipitation 0.00 in - - ()
Sea Level Pressure  
Sea Level Pressure 29.40 in    
Wind  
Wind Speed 4 mph (ESE)    
Max Wind Speed 12 mph    
Max Gust Speed 18 mph    
Visibility 10 miles    
Events      
Averages and records for this station are not official NWS values.
T = Trace of Precipitation, MM = Missing Value Source: NWS Daily Summary

Daily Weather History Graph

Daily Weather History Graph

Search for Another Location

Airport or City:

Trip Planner

Search our weather history database for the weather conditions in past years. The results will help you decide how hot, cold, wet, or windy it might be!

Date:

Astronomy

Jan. 02, 2013 Rise Set
Actual Time 10:09 AM AKST 4:07 PM AKST
Civil Twilight 9:12 AM AKST 5:05 PM AKST
Nautical Twilight 8:14 AM AKST 6:02 PM AKST
Astronomical Twilight 7:22 AM AKST 6:54 PM AKST
Moon 11:36 PM AKST (1/2) 11:19 AM AKST (1/2)
Length of Visible Light 7h 53m
Length of Day
5h 57m
Waning Gibbous, 74% of the Moon is Illuminated
Jan 2
Waning Gibbous
Jan 4
Last Quarter
Jan 11
New
Jan 18
First Quarter
Jan 26
Full

Hourly Weather History & Observations

Time (AKST) Temp. Windchill Dew Point Humidity Pressure Visibility Wind Dir Wind Speed Gust Speed Precip Events Conditions
12:16 AM 30.2 °F 25.4 °F 26.6 °F 86% 29.23 in 10.0 mi SE 4.6 mph - N/A   Overcast
12:36 AM 30.2 °F 25.4 °F 26.6 °F 86% 29.24 in 10.0 mi East 4.6 mph - N/A   Overcast
12:56 AM 33.8 °F - 26.6 °F 75% 29.26 in 10.0 mi Calm Calm - N/A   Overcast
1:16 AM 32.0 °F 26.4 °F 26.6 °F 80% 29.27 in 10.0 mi ESE 5.8 mph - N/A   Overcast
1:36 AM 30.2 °F 24.3 °F 24.8 °F 80% 29.27 in 10.0 mi East 5.8 mph - N/A   Overcast
1:56 AM 32.0 °F 28.7 °F 26.6 °F 80% 29.28 in 10.0 mi ESE 3.5 mph - N/A   Overcast
2:16 AM 33.8 °F 29.6 °F 26.6 °F 75% 29.28 in 10.0 mi ESE 4.6 mph - N/A   Overcast
2:36 AM 33.8 °F 27.7 °F 26.6 °F 75% 29.29 in 10.0 mi East 6.9 mph - N/A   Overcast
2:56 AM 33.8 °F 28.6 °F 26.6 °F 75% 29.30 in 10.0 mi East 5.8 mph - N/A   Scattered Clouds
3:16 AM 32.0 °F - 26.6 °F 80% 29.31 in 10.0 mi Calm Calm - N/A   Scattered Clouds
3:36 AM 30.2 °F - 24.8 °F 80% 29.32 in 10.0 mi Calm Calm - N/A   Scattered Clouds
3:56 AM 30.2 °F 24.3 °F 26.6 °F 86% 29.33 in 10.0 mi East 5.8 mph - N/A   Partly Cloudy
4:16 AM 30.2 °F 24.3 °F 26.6 °F 86% 29.33 in 10.0 mi SE 5.8 mph - N/A   Clear
4:36 AM 35.6 °F 30.7 °F 26.6 °F 70% 29.32 in 10.0 mi ESE 5.8 mph - N/A   Clear
4:56 AM 33.8 °F 27.7 °F 26.6 °F 75% 29.33 in 10.0 mi East 6.9 mph - N/A   Clear
5:16 AM 28.4 °F 22.2 °F 21.2 °F 74% 29.34 in 10.0 mi ESE 5.8 mph - N/A   Clear
5:36 AM 32.0 °F 24.8 °F 24.8 °F 75% 29.35 in 10.0 mi East 8.1 mph - N/A   Partly Cloudy
5:56 AM 30.2 °F 24.3 °F 24.8 °F 80% 29.35 in 10.0 mi ESE 5.8 mph - N/A   Mostly Cloudy
6:16 AM 30.2 °F 24.3 °F 24.8 °F 80% 29.35 in 10.0 mi East 5.8 mph - N/A   Overcast
6:36 AM 30.2 °F 22.6 °F 24.8 °F 80% 29.35 in 10.0 mi ESE 8.1 mph - N/A   Overcast
6:56 AM 30.2 °F 23.4 °F 24.8 °F 80% 29.36 in 10.0 mi East 6.9 mph - N/A   Overcast
7:16 AM 30.2 °F 25.4 °F 24.8 °F 80% 29.36 in 10.0 mi East 4.6 mph - N/A   Overcast
7:36 AM 30.2 °F 23.4 °F 26.6 °F 86% 29.36 in 10.0 mi East 6.9 mph - N/A   Overcast
7:56 AM 30.2 °F 23.4 °F 26.6 °F 86% 29.37 in 10.0 mi East 6.9 mph - N/A   Overcast
8:16 AM 30.2 °F 24.3 °F 24.8 °F 80% 29.38 in 10.0 mi ESE 5.8 mph - N/A   Overcast
8:36 AM 32.0 °F 26.4 °F 26.6 °F 80% 29.38 in 10.0 mi ESE 5.8 mph - N/A   Mostly Cloudy
8:56 AM 30.2 °F 26.7 °F 26.6 °F 86% 29.39 in 10.0 mi East 3.5 mph - N/A   Overcast
9:16 AM 28.4 °F 21.2 °F 24.8 °F 86% 29.39 in 10.0 mi ESE 6.9 mph - N/A   Overcast
9:36 AM 28.4 °F 24.6 °F 24.8 °F 86% 29.40 in 10.0 mi East 3.5 mph - N/A   Overcast
9:56 AM 28.4 °F - 24.8 °F 86% 29.41 in 10.0 mi Calm Calm - N/A   Overcast
10:16 AM 28.4 °F 24.6 °F 24.8 °F 86% 29.42 in 10.0 mi ESE 3.5 mph - N/A   Overcast
10:36 AM 28.4 °F 22.2 °F 24.8 °F 86% 29.42 in 10.0 mi East 5.8 mph - N/A   Overcast
10:56 AM 30.2 °F 25.4 °F 24.8 °F 80% 29.43 in 10.0 mi SE 4.6 mph - N/A   Overcast
11:16 AM 30.2 °F 23.4 °F 26.6 °F 86% 29.43 in 10.0 mi East 6.9 mph - N/A   Mostly Cloudy
11:36 AM 30.2 °F 25.4 °F 26.6 °F 86% 29.43 in 10.0 mi ESE 4.6 mph - N/A   Mostly Cloudy
11:56 AM 30.2 °F - 26.6 °F 86% 29.43 in 10.0 mi Calm Calm - N/A   Scattered Clouds
12:16 PM 28.4 °F - 24.8 °F 86% 29.44 in 10.0 mi Calm Calm - N/A   Mostly Cloudy
12:36 PM 30.2 °F - 24.8 °F 80% 29.44 in 10.0 mi Calm Calm - N/A   Overcast
12:56 PM 30.2 °F - 24.8 °F 80% 29.45 in 10.0 mi Calm Calm - N/A   Overcast
1:16 PM 30.2 °F - 26.6 °F 86% 29.45 in 10.0 mi Calm Calm - N/A   Overcast
1:36 PM 32.0 °F - 26.6 °F 80% 29.45 in 10.0 mi Calm Calm - N/A   Mostly Cloudy
1:56 PM 30.2 °F - 26.6 °F 86% 29.45 in 10.0 mi Calm Calm - N/A   Mostly Cloudy
2:16 PM 30.2 °F - 28.4 °F 93% 29.45 in 10.0 mi Calm Calm - N/A   Overcast
2:36 PM 30.2 °F - 28.4 °F 93% 29.45 in 10.0 mi Calm Calm - N/A   Partly Cloudy
2:56 PM 30.2 °F - 26.6 °F 86% 29.45 in 10.0 mi Calm Calm - N/A   Partly Cloudy
3:16 PM 28.4 °F - 24.8 °F 86% 29.45 in 10.0 mi Calm Calm - N/A   Partly Cloudy
3:36 PM 26.6 °F - 23.0 °F 86% 29.45 in 10.0 mi Calm Calm - N/A   Clear
3:56 PM 28.4 °F - 24.8 °F 86% 29.45 in 10.0 mi Calm Calm - N/A   Clear
4:36 PM 26.6 °F - 24.8 °F 93% 29.46 in 10.0 mi Calm Calm - N/A   Partly Cloudy
4:56 PM 26.6 °F 20.0 °F 26.6 °F 100% 29.46 in 10.0 mi South 5.8 mph - N/A   Scattered Clouds
5:16 PM 26.6 °F - 24.8 °F 93% 29.46 in 10.0 mi Calm Calm - N/A   Partly Cloudy
5:36 PM 26.6 °F - 24.8 °F 93% 29.46 in 10.0 mi Calm Calm - N/A   Scattered Clouds
5:56 PM 26.6 °F - 24.8 °F 93% 29.46 in 10.0 mi Calm Calm - N/A   Scattered Clouds
6:16 PM 24.8 °F - 24.8 °F 100% 29.46 in 10.0 mi Calm Calm - N/A   Mostly Cloudy
6:36 PM 23.0 °F - 19.4 °F 86% 29.47 in 10.0 mi Calm Calm - N/A   Scattered Clouds
6:56 PM 23.0 °F - 19.4 °F 86% 29.47 in 10.0 mi Calm Calm - N/A   Partly Cloudy
7:16 PM 23.0 °F - 21.2 °F 93% 29.46 in 10.0 mi Calm Calm - N/A   Partly Cloudy
7:36 PM 24.8 °F - 24.8 °F 100% 29.46 in 10.0 mi Calm Calm - N/A   Clear
7:56 PM 23.0 °F - 21.2 °F 93% 29.46 in 10.0 mi Calm Calm - N/A   Scattered Clouds
8:16 PM 23.0 °F - 21.2 °F 93% 29.46 in 10.0 mi Calm Calm - N/A   Scattered Clouds
8:36 PM 24.8 °F - 21.2 °F 86% 29.46 in 10.0 mi Calm Calm - N/A   Clear
8:56 PM 24.8 °F - 23.0 °F 93% 29.46 in 10.0 mi Calm Calm - N/A   Scattered Clouds
9:16 PM 23.0 °F - 21.2 °F 93% 29.46 in 10.0 mi Calm Calm - N/A   Mostly Cloudy
9:36 PM 26.6 °F 20.0 °F 24.8 °F 93% 29.46 in 10.0 mi ESE 5.8 mph - N/A   Mostly Cloudy
9:56 PM 32.0 °F 27.5 °F 28.4 °F 87% 29.46 in 10.0 mi East 4.6 mph - N/A   Scattered Clouds
10:16 PM 32.0 °F 24.8 °F 26.6 °F 80% 29.46 in 10.0 mi East 8.1 mph - N/A   Scattered Clouds
10:36 PM 35.6 °F 29.2 °F 28.4 °F 75% 29.46 in 10.0 mi East 8.1 mph - N/A   Scattered Clouds
10:56 PM 35.6 °F 29.9 °F 28.4 °F 75% 29.46 in 10.0 mi ENE 6.9 mph - N/A   Mostly Cloudy
11:16 PM 35.6 °F 27.5 °F 28.4 °F 75% 29.46 in 10.0 mi East 11.5 mph 16.1 mph N/A   Scattered Clouds
11:36 PM 37.4 °F 29.8 °F 28.4 °F 70% 29.46 in 10.0 mi East 11.5 mph 18.4 mph N/A   Partly Cloudy
11:56 PM 37.4 °F 30.3 °F 28.4 °F 70% 29.46 in 10.0 mi ENE 10.4 mph - N/A   Partly Cloudy